Location: Brompton
(51.4000°N, 0.5333°E)
Time: 05:45:45
(UTC+00:00)

USA 215 - Pass Details

Date: 27 September 2021
Orbit: 1093 x 1114 km, 123.0° (Epoch: 14 October)

Event Time Altitude Azimuth Distance (km) Brightness Sun altitude
Exits shadow 19:27:17 22° 130° (SE) 2,201 4.3 -16.7°
Maximum altitude 19:31:48 76° 213° (SSW) 1,136 3.3 -17.3°
Drops below altitude 10° 19:38:22 10° 299° (WNW) 2,971 6.8 -18.3°
Sets 19:40:52 0° 301° (WNW) 3,934 7.7 -18.7°
